Location: Medlow Airstrip Trail, Medlow Bath NSW 2780, Australia
(33.6682°S, 150.3233°E)
Time: 19:30:06
(UTC+11:00)

N. Korean satellite - Visible Passes

Search period start: 23 October 2019 00:00
Search period end: 02 November 2019 00:00
Orbit: 455 x 508 km, 97.2° (Epoch: 22 October)

Date Brightness Start Highest point End Pass type
(mag) Time Alt. Az. Time Alt. Az. Time Alt. Az.
23 Oct 9.7 05:28:17 10° ENE 05:31:13 22° ESE 05:34:09 10° SSE visible
24 Oct 10.7 05:05:17 10° E 05:06:09 11° ESE 05:07:01 10° SE visible
24 Oct 10.0 19:40:05 10° SSW 19:42:31 18° WSW 19:44:53 10° WNW visible
27 Oct 10.0 05:20:53 10° ENE 05:23:26 18° ESE 05:25:59 10° SSE visible
27 Oct 10.7 19:59:17 10° WSW 19:59:46 10° WSW 20:00:14 10° WSW visible
31 Oct 10.2 05:13:36 10° ENE 05:15:36 14° ESE 05:17:36 10° SE visible
31 Oct 10.3 19:50:16 10° SW 19:51:54 13° WSW 19:53:32 10° W visible
